Location: Unspecified
(0.0000°N, 0.0000°E)
Time: 19:00:22
(UTC+00:00)

Transit 2A Rocket - Pass Details

Date: 26 November 2019
Orbit: 594 x 909 km, 66.7° (Epoch: 08 December)

Event Time Altitude Azimuth Distance (km) Brightness Sun altitude
Rises 19:06:02 0° 227° (SW) 3,320 9.6 -18.3°
Reaches altitude 10° 19:09:11 10° 243° (WSW) 2,324 8.7 -19.1°
Maximum altitude 19:12:54 19° 288° (WNW) 1,700 7.4 -19.9°
Drops below altitude 10° 19:16:23 10° 333° (NNW) 2,168 7.4 -20.7°
Sets 19:19:14 0° 351° (N) 3,022 8.0 -21.4°
Enters shadow 19:19:18 - 352° (N) 3,046 8.0 -21.4°
